Regional Weather Roundup
Issued by NWS Pendleton, OR

Home | Current Version | Previous Version | Text Only | Print | Product List | Glossary On
Versions: 1 2 3 4 5 6 7 8 9 10 11 12 13 14 15 16 17 18 19 20 21 22 23 24 25 26 27 28 29 30 31 32 33 34 35 36 37 38 39 40 41 42 43 44 45 46 47 48 49 50
000
ASUS46 KPDT 270025
RWRPDT
PENDLETON REGIONAL WEATHER ROUNDUP
NATIONAL WEATHER SERVICE PENDLETON OREGON
500 PM PDT WED JUL 26 2017

NOTE: FAIR INDICATES FEW OR NO CLOUDS BELOW 12,000 FEET WITH NO
SIGNIFICANT WEATHER AND/OR OBSTRUCTIONS TO VISIBILITY.

# INDICATES UNOFFICIAL STATION AND DATA

WAZ520-270110-
EAST SLOPES OF WASHINGTON CASCADES

CITY            SKY/WX      TMP DP  RH  WIND    PRES   REMARKS
#BULLFROG       N/A         84  52  33  W13     N/A
#CLE ELUM HS    N/A         84  49  30  NW8     29.92
#CLE ELUM LAKE  N/A         83  51  33  NW1     30.02S
#EASTON DOT     N/A         82  53  37  N3      N/A
#ELK HTS DOT    N/A         86  86  100 W6      N/A
#GLENWOOD       N/A         87  60  40  S6      29.86
#NELSON 3SW     N/A         80  51  36  CALM    30.07
#NILE           N/A         85  51  31  SW3     29.14
#TEANAWAY 4NE   N/A         88  55  33  W7      N/A
#TROUT LAKE 1NE N/A         85  56  37  NW10    29.88
#TROUT LAKE 1E  N/A         88  56  34  S2      30.01
$$

WAZ521-270110-
SIMCOE HIGHLANDS

CITY            SKY/WX      TMP DP  RH  WIND    PRES   REMARKS
#BICKLETON HS   N/A         86  44  23  W17     29.94F
#CENTERVILLE 1SWN/A         88  53  30  W17     29.83
#GOLDENDALE 1NE N/A         88  27  11  SW1     N/A
#GOLDENDALE 4W  N/A         90  26  10  W9      29.98S HX 86
#GOODNOE HILLS  N/A         95  36  13  W16     N/A    HX 90
#LYLE 6NE       N/A         87  58  38  SW9     29.89
#PITT 4SE       N/A         85  55  36  SW10    29.90
$$

WAZ026-270110-
KITTITAS VALLEY

CITY            SKY/WX      TMP DP  RH  WIND    PRES   REMARKS
ELLENSBURG AP   PTCLDY      94  51  23  NW16    29.93  HX 91
6HR MIN TEMP:   82; 6HR MAX TEMP:   98;

#ELLENSBURG CWU N/A         98  50  20  N3      29.77  HX 95
#ELLENSBURG 3NE N/A         89  54  31  N9      28.00
#ELLENSBURG 1E  N/A         93  46  20  NE2     29.86  HX 89
#KITTITAS 3S    N/A         90  63  41  CALM    29.80  HX 91
#MANASTASH RDG  N/A         90  89  97  SW7     N/A    HX 129
#ROCKY CYN DOT  N/A         94  58  30  W17G25  N/A    HX 93
#RYEGRASS DOT   N/A         91  52  27  S12     N/A    HX 88
$$

WAZ027-270110-
YAKIMA VALLEY

CITY            SKY/WX      TMP DP  RH  WIND    PRES   REMARKS
SUNNYSIDE AP    N/A         91  53  28  CALM    29.86S HX 89
YAKIMA AIRPORT  PTCLDY      98  43  15  S10     29.88  HX 94
6HR MIN TEMP:   85; 6HR MAX TEMP:   98;

YAKIMA-VAGABOND SUNNY       96  40  14  S12     29.88  HX 91
6HR MIN TEMP:   85; 6HR MAX TEMP:   96;

#DONALD 2NE     N/A         98  32  10  SW3     28.77S HX 93
#GRANDVIEW      N/A         93  49  22  CALM    29.82F HX 90
#MABTON         N/A         93  60  33  N7      29.84  HX 93
#MOXEE 2E       N/A         92  N/A N/A CALM    29.78F
#NACHES 2SW     N/A         92  63  38  S2      29.96  HX 93
#OUTLOOK DOT    N/A         94  50  23  N2      29.85  HX 91
#PARKER DOT     N/A         98  45  17  N3      29.88  HX 94
#TERRACE HTS    N/A         94  52  24  S2      29.78  HX 91
#TOPPENISH      N/A         91  58  33  E6      29.75  HX 90
#I82 S UMTANUM RN/A         92  54  28  SW10    N/A    HX 90
#UNION GAP DOT  N/A         96  41  15  S3      29.90  HX 92
#W YAKIMA       N/A         93  51  24  S1      29.80F HX 90
#WHITE SWAN 5E  N/A         95  49  21  CALM    29.81  HX 92
#WILEY CITY 3W  N/A         96  25   8  CALM    29.87  HX 91
#ZILLAH DOT     N/A         92  53  27  E6      N/A    HX 90
$$

WAZ028-270110-
LOWER COLUMBIA BASIN...WASHINGTON

CITY            SKY/WX      TMP DP  RH  WIND    PRES   REMARKS
HANFORD         MOCLDY      99  41  14  S12     29.86  HX 95
PASCO           MOCLDY      99  43  15  SW10    29.86  HX 95
6HR MIN TEMP:   87; 6HR MAX TEMP:   99;

PROSSER AWOS    N/A         95  52  24  W6      29.88S HX 92
RICHLAND AWOS   MOCLDY      98  43  15  E3      29.84F HX 94
#BENTON CITY    N/A         94  49  22  SW2     29.72  HX 91
#CONNELL 5N     N/A         94  49  22  SW5     29.84  HX 91
#CONNELL 5NW    N/A         88  61  41  SW2     29.79
#ELTOPIA 6NW    N/A         88  59  38  CALM    28.87
#KAHLOTUS       N/A         93  47  21  NW7     29.84  HX 89
#KENNEWICK 3S   N/A         92  51  25  CALM    29.84  HX 89
#PATERSON       N/A         96  52  23  SW3     29.81  HX 93
#PROSSER DOT    N/A         97  46  18  S10     29.87  HX 93
#SAGEMOOR 2W    N/A         89  66  47  CALM    29.70
#TOUCHET 2S     N/A         97  55  25  NW2     29.82  HX 95
#WEST PASCO     N/A         98  55  24  S1      29.85  HX 96
$$

WAZ029-270110-
FOOTHILLS OF THE BLUES...WASHINGTON

CITY            SKY/WX      TMP DP  RH  WIND    PRES   REMARKS
WALLA WALLA AP  PTCLDY      96  39  14  SW12    29.91  HX 91
6HR MIN TEMP:   86; 6HR MAX TEMP:   97;

#CLYDE 6NW      N/A         95  45  18  W13     29.83  HX 91
#DAYTON SCHOOL  N/A         94  41  16  SE2     29.95  HX 90
#LOWDEN 2SE     N/A         96  54  25  NW5     29.83  HX 94
#PLEASANT VIEW 1N/A         95  38  14  SW5     29.85  HX 91
#PRESCOTT       N/A         97  55  25  CALM    29.82  HX 95
#WHITMAN COLLEGEN/A         95  47  20  N3      29.87  HX 91
#WAITSBURG 5S   N/A         96  39  14  CALM    29.93  HX 91
#WAITSBURG 6SSE N/A         95  40  15  NW3     29.86F HX 91
#WALLA WALLA 5E N/A         93  52  25  SW1     N/A    HX 90
#WHITMAN MISSIONN/A         95  54  25  NW1     29.85  HX 93
$$

WAZ030-270110-
BLUE MOUNTAINS...WASHINGTON

CITY            SKY/WX      TMP DP  RH  WIND    PRES   REMARKS
#DIXIE 5SE      N/A         76  39  26  CALM    29.97
$$

ORZ009-041-WAZ024-270110-
COLUMBIA RIVER GORGE

CITY            SKY/WX      TMP DP  RH  WIND    PRES   REMARKS
HOOD RIVER AP   SUNNY       84  54  36  W5      29.95S
THE DALLES AP   PTCLDY      93  52  25  NW22G33 29.88  HX 90
6HR MIN TEMP:   82; 6HR MAX TEMP:   94;

#ARLINGTON AIRPON/A         94  51  23  W14     29.83S HX 91
#LYLE           N/A         86  58  39  W16G33  29.89
#MARYHILL       N/A         91  35  14  N16     N/A    HX 87
#SMITHVILLE     N/A         88  58  36  W13     29.87F

$$

ORZ510-270110-
NORTH CENTRAL OREGON

CITY            SKY/WX      TMP DP  RH  WIND    PRES   REMARKS
#ANTELOPE       N/A         87  54  32  SW9     29.68
#CHENOWITH 1W   N/A         83  53  36  W29G36  N/A
#DUFUR          N/A         90  45  21  N7      29.84  HX 86
#DUFUR 9E       N/A         82  48  31  NW16    29.91
#GRASS VALLEY 1SN/A         87  46  24  N9      30.01
#MAUPIN SCHOOL  N/A         95  49  21  W3      29.93  HX 92
#MORO SCHOOL    N/A         86  53  32  W13     29.94
#SHANIKO 4NW    N/A         86  47  26  SW6     30.07
#TYGH VALLEY 2NEN/A         94  47  20  N9      29.82  HX 90
#WAPANITIA AIRPON/A         90  48  24  NW10    29.86  HX 87
#WASCO 5NE      N/A         93  43  18  W9      29.83  HX 89
$$

ORZ511-270110-
CENTRAL OREGON

CITY            SKY/WX      TMP DP  RH  WIND    PRES   REMARKS
BEND AIRPORT    MOCLDY      84  52  33  S13     30.07F
MADRAS AIRPORT  PTCLDY      90  46  22  W12     30.00F HX 87
PRINEVILLE AP   MOCLDY      86  48  27  W9      30.06S
REDMOND AIRPORT MOCLDY      87  45  23  W7      30.05
6HR MIN TEMP:   77; 6HR MAX TEMP:   87;

#ASHWOOD SCHOOL N/A         89  47  24  W1      29.96
#BEND 1SW       N/A         66  62  87  CALM    N/A
#BEND-AWBREY    N/A         81  54  39  CALM    29.86S
#BEND-KIM LN    N/A         89  56  33  N1      29.81
#CULVER         N/A         88  53  30  S3      29.77
#CULVER 8W      N/A         89  45  22  N2      30.03S
#LAKE BILLY CHINN/A         86  N/A N/A W2      29.92F
#MADRAS 4S      N/A         89  25  10  CALM    N/A
#POWELL BUTTE   N/A         84  49  30  NW9     30.02S
#PRINEVILLE     N/A         85  50  30  N1      29.94
#PRINEVILLE 3N  N/A         83  51  33  W1      29.94S
#WARM SPRINGS   N/A         90  56  32  CALM    29.74  HX 88

$$


ORZ509-270110-
EAST SLOPES OF OREGON CASCADES

CITY            SKY/WX      TMP DP  RH  WIND    PRES   REMARKS
SISTERS AWOS    N/A         86  54  34  CALM    N/A
#CAMP SHERMAN   N/A         87  50  28  N7      29.95
#LA PINE 4NW    N/A         77  53  43  N1      29.93
#SISTERS ODOT   N/A         85  50  30  SE2     N/A
#SISTERS 3N     N/A         86  50  29  NW3     29.95S
#SUNRIVER       N/A         82  51  34  W3      30.04F
#TUMALO 3W      N/A         81  51  35  N5      29.75

$$

ORZ044-270110-
LOWER COLUMBIA BASIN...OREGON

CITY            SKY/WX      TMP DP  RH  WIND    PRES   REMARKS
HERMISTON       MOCLDY      95  46  19  W8      29.87  HX 91
6HR MIN TEMP:   86; 6HR MAX TEMP:   98;

#BOARDMAN SCHOOLN/A         97  49  20  S6      29.83  HX 94
#BOARDMAN 8SW   N/A         96  54  25  S2      29.82F HX 94
#ECHO 8SW       N/A         93  53  26  N1      29.90  HX 91
#IONE SCHOOL    N/A         93  48  22  W2      29.84  HX 90
#UMATILLA       N/A         97  52  22  CALM    29.76  HX 94
$$

ORZ507-270110-
NORTHERN FOOTHILLS OF THE BLUES

CITY            SKY/WX      TMP DP  RH  WIND    PRES   REMARKS
PENDLETON AIRPT PTCLDY      94  42  17  N7      29.93  HX 90
6HR MIN TEMP:   87; 6HR MAX TEMP:   97;

#ADAMS 3WNW     N/A         92  46  21  CALM    29.84  HX 88
#ATHENA         N/A         93  46  20  CALM    29.87  HX 89
#CAYUSE         N/A         91  48  23  CALM    29.82  HX 88
#HELIX SCHOOL   N/A         92  49  23  W7      29.85  HX 89
#HELIX 3N       N/A         90  45  21  SW7     29.93  HX 86
#HOLDMAN 6E     N/A         92  50  24  N5      29.66  HX 89
#M-F GROVE ELEM N/A         93  45  19  CALM    29.88  HX 89
#M-FREEWATER 5SEN/A         91  59  34  W2      29.91  HX 90
#PENDLETON DNTN N/A         94  49  22  CALM    29.89  HX 91
#PDT AQUATIC CTRN/A         93  50  23  W3      29.90  HX 90
#PDT SUNRIDGE   N/A         95  51  23  W2      29.92  HX 92
#PENDLETON 7NW  N/A         93  60  33  W3      29.93  HX 93
#PILOT ROCK 1S  N/A         91  51  26  N5      29.96  HX 88
#PILOT ROCK     N/A         94  50  23  CALM    29.97S HX 91
#TUTUILLA       N/A         92  55  29  NW1     29.96  HX 90
#UMAPINE 2E     N/A         96  58  28  NW1     29.85  HX 95
#WESTON SCHOOL  N/A         90  45  21  SE7     29.83  HX 86

$$

ORZ508-270110-
SOUTHERN FOOTHILLS OF THE BLUES

CITY            SKY/WX      TMP DP  RH  WIND    PRES   REMARKS
LEXINGTON       PTCLDY      91  45  20  CALM    29.96F HX 87
#AJAX           N/A         89  43  20  S10     30.13
#CONDON 5W      N/A         85  48  28  CALM    30.03
#FOSSIL SCHOOL  N/A         87  46  24  CALM    29.95
#HEPPNER EOC    N/A         89  49  25  NW3     29.78
#HEPPNER 4NE    N/A         85  47  27  NW7     29.85
#LEXINGTON 2SE  N/A         92  50  24  CALM    29.88  HX 89
#MIKKALO        N/A         91  44  20  NW9     30.07  HX 87
#OLEX 4N        N/A         94  49  22  W6      29.88  HX 91
#RUGGS 5NE      N/A         90  43  20  NW5     30.20  HX 86
#RUGGS 2SW      N/A         88  48  25  NW3     29.85

$$

ORZ502-503-270110-
BLUE MOUNTAINS

CITY            SKY/WX      TMP DP  RH  WIND    PRES   REMARKS
MEACHAM         PTCLDY      84  33  16  VRB5    30.08
6HR MIN TEMP:   74; 6HR MAX TEMP:   87; 6HR PCP:  0.01;

#GRANITE        N/A         68  59  73  CALM    29.77F
#HEPPNER 15SE   N/A         81  48  32  W6      29.93S
#LONG CREEK HS  N/A         85  42  22  CALM    N/A
#PIKES PEAK     N/A         83  44  25  CALM    27.99
#TOLLGATE       N/A         78  40  26  S1      30.01
#TROY SCHOOL    N/A         98  47  18  CALM    29.68  HX 94
#UKIAH          N/A         86  48  27  N7      29.79
#WESTON 4E      N/A         84  47  28  N2      29.82
$$

ORZ505-270110-
JOHN DAY BASIN

CITY            SKY/WX      TMP DP  RH  WIND    PRES   REMARKS
JOHN DAY        MOCLDY      83  47  28  CALM    30.04F
#JOHN DAY KJDY  N/A         88  N/A N/A E3      30.79
#ANTELOPE 9ESE  N/A         93  47  21  W5      N/A    HX 89
#MITCHELL       N/A         90  54  30  CALM    30.18  HX 88
#MITCHELL 8NW   N/A         86  41  21  W1      29.88
#MONUMENT HS    N/A         95  43  17  VRB5    29.89  HX 91
#MT. VERNON 5SE N/A         83  45  26  CALM    30.01
#SPRAY SCHOOL   N/A         96  N/A N/A CALM    N/A
$$

ORZ506-270110-
OCHOCO AND JOHN DAY HIGHLANDS

CITY            SKY/WX      TMP DP  RH  WIND    PRES   REMARKS
#IZEE 6NW       N/A         93  43  18  SW2     N/A    HX 89
#PINE MTN OBS   N/A         69  44  40  NW3     N/A
#PRAIRIE CITY   N/A         77  56  48  E1      30.20
#SENECA         N/A         83  N/A N/A NW2     N/A
#SENECA 9NW     N/A         66  63  90  CALM    29.79
$$

ORZ049-270110-
GRANDE RONDE VALLEY

CITY            SKY/WX      TMP DP  RH  WIND    PRES   REMARKS
LA GRANDE       MOCLDY      90  43  20  N3      30.00F HX 86
#COVE           N/A         88  54  31  NW1     30.04
#COVE SCHOOL    N/A         88  50  27  CALM    30.03
#COVE 6NW       N/A         88  47  24  CALM    29.86
#ELGIN 3N       N/A         88  41  19  CALM    29.97F
#ELGIN 1E       N/A         92  45  20  CALM    N/A    HX 88
#IMBLER SCHOOL  N/A         86  43  22  CALM    29.97
#ISLAND CITY 4N N/A         86  60  42  W1      30.01
#LA GRANDE-LEFFEN/A         93  46  20  N3      30.01F HX 89
#UNION 1S       N/A         83  53  36  S1      29.86
$$

ORZ050-270110-
WALLOWA COUNTY

CITY            SKY/WX      TMP DP  RH  WIND    PRES   REMARKS
JOSEPH AIRPORT  PTCLDY      84  39  20  N3      30.11
#ENTERPRISE HS  N/A         86  47  26  CALM    29.76
#IMNAHA SCHOOL  N/A         95  40  15  SE3     29.93  HX 91
#IMNAHA 10S     N/A         92  42  18  NE2     29.99  HX 88
#JOSEPH         N/A         83  40  22  W1      30.04S
#JOSEPH 3N      N/A         84  42  23  CALM    30.11
#JOSEPH 3W      N/A         82  55  40  CALM    N/A
#LOSTINE        N/A         89  46  23  N2      29.68
#LOSTINE 3SE    N/A         87  44  22  E1      30.10
#MT HOWARD 8000 N/A         62  42  48  CALM    30.40
#PROMISE 1S     N/A         84  48  29  NW5     29.97
#WALLOWA LAKE   N/A         85  52  32  NE1     30.14
#WALLOWA SCHOOL N/A         89  44  21  CALM    29.98



$$



USA.gov is the U.S. government's official web portal to all federal, state and local government web resources and services.